Location: Unspecified
(0.0000°N, 0.0000°E)
Time: 13:52:58
(UTC+00:00)

Courier 1B Rocket - Visible Passes

Search period start: 20 July 2019 00:00
Search period end: 30 July 2019 00:00
Orbit: 920 x 1202 km, 28.2° (Epoch: 19 July)

Date Brightness Start Highest point End Pass type
(mag) Time Alt. Az. Time Alt. Az. Time Alt. Az.
20 Jul 7.6 21:01:29 10° N 21:02:37 11° NNE 21:02:37 11° NNE visible
21 Jul 7.8 21:51:07 10° NNW 21:51:25 11° NNW 21:51:25 11° NNW visible
22 Jul 7.2 20:51:07 10° NNW 20:53:55 16° N 20:53:55 16° N visible
23 Jul 7.3 19:52:15 10° N 19:53:56 11° NNE 19:55:39 10° NE visible
23 Jul 7.6 21:41:47 10° NW 21:42:46 14° NNW 21:42:46 14° NNW visible
24 Jul 6.8 20:41:28 10° NNW 20:45:19 22° N 20:45:19 22° N visible
25 Jul 7.0 19:41:36 10° N 19:45:36 16° NNE 19:47:54 14° NE visible
25 Jul 7.4 21:32:42 10° NW 21:34:16 18° NW 21:34:16 18° NW visible
26 Jul 7.3 18:43:30 10° NNE 18:44:08 10° NNE 18:44:45 10° NNE visible
26 Jul 6.3 20:32:09 10° NW 20:36:54 33° N 20:36:54 33° N visible
27 Jul 6.5 19:31:55 10° NNW 19:37:06 24° NNE 19:39:34 20° ENE visible
27 Jul 7.1 21:23:51 10° WNW 21:25:56 22° NW 21:25:56 22° NW visible
28 Jul 7.0 18:32:09 10° N 18:35:49 15° NNE 18:39:35 10° ENE visible
28 Jul 5.6 20:23:05 10° NW 20:28:39 50° N 20:28:39 50° N visible
29 Jul 6.0 19:22:36 10° NW 19:28:31 35° NNE 19:31:24 25° ENE visible
29 Jul 7.0 21:15:19 10° WNW 21:17:46 24° WNW 21:17:46 24° WNW visible
